This demonstration page uses our WeatherBlox Daily Observations layout. Learn more.

Left ArrowRight Arrow

39.01783, -85.05884

Hourly Observations for March 8, 2021

Temp ( °F °C ) Dew Point ( °F °C ) Humidity (%) Winds ( mph kmh ) Pressure ( in mb ) Visibility ( mi km ) Precip ( " mm )
12:52 am 00:52 Partly Cloudy 33 0.6 13 -10.6 43 43 S 3 6 30.45 1031 10 16.0934 0 0
1:52 am 01:52 Partly Cloudy 33 0.6 12 -11.1 42 42 S 3 6 30.46 1032 10 16.0934 0 0
2:52 am 02:52 Partly Cloudy 31 -0.6 16 -8.9 54 54 S 6 9 30.45 1031 10 16.0934 0 0
3:52 am 03:52 Partly Cloudy 33 0.6 12 -11.1 42 42 S 6 9 30.45 1031 10 16.0934 0 0
4:52 am 04:52 Partly Cloudy 31 -0.6 13 -10.6 47 47 S 5 7 30.46 1032 10 16.0934 0 0
5:52 am 05:52 Partly Cloudy 32 0 13 -10.6 45 45 S 3 6 30.47 1032 10 16.0934 0 0
6:52 am 06:52 Partly Cloudy 30 -1.1 15 -9.4 54 54 S 6 9 30.49 1032 10 16.0934 0 0
7:52 am 07:52 Mostly Cloudy 31 -0.6 18 -7.8 59 59 S 7 11 30.49 1032 9 14.48406 0 0
8:52 am 08:52 Partly Cloudy 41 5 20 -6.7 43 43 SSW 10 17 30.49 1033 10 16.0934 0 0
9:52 am 09:52 Partly Cloudy 48 8.9 21 -6.1 34 34 SW 10 17 30.49 1033 10 16.0934 0 0
10:52 am 10:52 Partly Cloudy 51 10.6 23 -5 33 33 SW 13 20 30.48 1032 9 14.48406 0 0
11:52 am 11:52 Mostly Cloudy 57 13.9 27 -2.8 32 32 SSW 10 17 30.45 1031 10 16.0934 0 0
12:52 pm 12:52 Mostly Cloudy 61 16.1 27 -2.8 27 27 WSW 12 19 30.43 1031 10 16.0934 0 0
1:52 pm 13:52 Mostly Cloudy 63 17.2 28 -2.2 27 27 W 14 22 30.4 1029 10 16.0934 0 0
2:52 pm 14:52 Mostly Cloudy 64 17.8 29 -1.7 27 27 SW 9 15 30.38 1029 10 16.0934 0 0
3:52 pm 15:52 Mostly Cloudy 64 17.8 30 -1.1 28 28 SW 14 22 30.37 1029 9 14.48406 0 0
4:52 pm 16:52 Partly Cloudy 63 17.2 29 -1.7 28 28 SW 10 17 30.37 1028 10 16.0934 0 0
5:52 pm 17:52 Mostly Sunny 62 16.7 29 -1.7 29 29 SW 9 15 30.37 1028 10 16.0934 0 0
6:52 pm 18:52 Mostly Clear 57 13.9 28 -2.2 33 33 SSW 6 9 30.38 1029 10 16.0934 0 0
7:52 pm 19:52 Clear 52 11.1 29 -1.7 41 41 S 6 9 30.4 1029 10 16.0934 0 0
8:52 pm 20:52 Partly Cloudy 50 10 29 -1.7 44 44 S 7 11 30.39 1029 10 16.0934 0 0
9:52 pm 21:52 Mostly Cloudy 48 8.9 29 -1.7 48 48 SSW 6 9 30.4 1029 10 16.0934 0 0
10:52 pm 22:52 Mostly Cloudy 47 8.3 28 -2.2 48 48 SSW 6 9 30.4 1029 10 16.0934 0 0
11:52 pm 23:52 Partly Cloudy 45 7.2 27 -2.8 49 49 SSW 6 9 30.39 1029 10 16.0934 0 0

Powered by AerisWeather